Theta_e
311 311 311 310 310 311 310 310 309 309 310 310 309 309 310 311 308 311 316 317 322 324 326 327 327 328 327 328 327 329 333 334 333 335 336 332 332 330 330 335 336 334 337 336 335
311 311 311 311 310 310 311 310 309 309 310 309 308 309 309 310 311 309 311 314 317 322 326 326 328 327 330 329 329 332 334 332 328 330 334 331 330 331 332 335 336 337 337 335 334
310 311 310 311 311 310 311 310 310 309 308 309 308 308 309 309 310 307 308 312 313 314 323 325 326 328 330 329 330 331 332 329 329 329 328 329 330 329 331 335 334 338 338 334 332
311 310 310 310 310 310 310 310 309 309 309 309 308 308 308 309 307 317 315 319 315 318 322 323 327 330 331 333 330 333 330 330 330 328 329 329 328 329 328 330 329 335 337 335 332
308 308 308 307 308 310 310 310 307 309 309 309 308 308 308 307 307 306 310 312 317 320 321 324 326 328 330 332 330 332 331 330 328 327 327 328 329 328 328 327 329 336 336 336 332
307 307 307 307 306 307 306 308 307 309 309 309 308 307 307 307 304 306 307 312 312 319 321 323 323 326 328 331 331 330 330 330 328 328 328 329 329 328 327 328 335 337 335 335 334
308 306 306 307 306 304 305 306 306 308 308 308 307 306 307 306 305 306 310 309 311 316 320 322 323 324 326 328 328 331 332 331 330 329 329 328 330 329 331 330 335 336 335 335 333
308 307 306 307 305 304 305 305 306 305 306 306 306 306 307 305 306 306 306 306 310 317 319 321 321 322 321 326 330 333 332 335 331 329 329 329 332 328 332 331 334 335 335 335 334
307 307 306 306 305 305 305 306 304 302 303 303 305 306 306 306 306 308 306 309 313 318 319 320 320 321 320 329 332 332 335 334 331 329 330 329 331 328 332 333 334 335 334 334 335
307 306 306 305 304 305 305 305 304 303 302 304 305 307 306 307 306 305 310 312 315 317 321 321 322 321 322 327 329 328 332 332 332 330 330 329 330 329 331 333 334 335 334 334 334
306 306 305 304 305 305 305 304 305 305 303 304 304 305 305 304 303 307 310 313 315 317 322 322 323 322 320 325 324 328 329 332 331 331 331 330 330 328 331 332 334 337 335 334 333
305 305 304 305 305 305 303 303 305 305 305 303 303 302 302 304 304 304 310 313 316 317 319 321 323 320 319 322 327 329 332 331 329 329 330 330 330 328 331 332 333 334 336 335 335
305 304 304 305 304 303 303 305 305 303 303 301 301 303 305 305 306 305 308 312 315 317 320 322 323 321 323 322 324 323 327 332 332 331 329 329 331 330 328 329 331 332 333 333 334
304 304 305 303 304 304 303 303 303 302 305 305 304 307 306 306 306 305 308 312 315 318 319 320 318 323 322 323 323 320 323 325 328 332 333 329 337 330 328 327 330 333 334 333 333
304 305 304 304 304 304 303 302 301 303 305 303 305 305 306 307 305 308 310 312 313 317 318 319 317 323 325 325 325 326 323 325 325 329 329 332 335 329 328 328 328 329 334 334 334
305 305 303 305 304 302 302 302 303 307 304 303 304 304 304 306 305 305 307 310 311 314 316 315 314 316 321 323 323 325 326 324 324 325 328 328 333 332 329 327 326 326 332 334 332
303 302 302 302 304 301 301 303 306 304 301 303 303 303 304 305 306 306 307 307 310 312 314 318 317 317 317 324 324 326 326 327 328 327 332 327 332 330 328 326 324 326 331 332 329
301 301 302 301 300 300 303 306 303 299 300 301 302 303 305 304 305 306 306 306 307 310 314 316 321 318 319 324 326 327 324 328 333 333 330 326 329 330 324 318 317 323 330 327 322
302 304 303 301 300 301 304 305 305 302 302 302 303 304 306 304 304 304 306 306 305 309 313 317 318 319 318 320 322 326 328 321 323 320 328 329 327 324 321 319 319 323 322 321 318
303 303 303 300 300 303 302 303 300 299 301 302 303 303 302 303 304 306 305 306 306 305 308 315 317 318 321 318 320 323 320 326 324 329 332 330 327 329 324 321 318 320 319 316 312
303 302 302 300 302 302 303 302 299 298 300 301 300 300 301 303 305 305 306 306 306 306 305 314 315 318 319 318 320 322 324 325 325 324 330 328 325 310 323 322 317 317 317 313 309
304 301 300 301 303 297 302 299 298 299 299 300 301 301 299 299 303 304 306 305 306 307 306 310 315 313 317 314 313 316 322 323 327 325 320 322 322 310 312 320 316 316 315 311 308
297 305 300 301 304 303 300 298 298 299 300 300 300 300 299 300 299 302 304 305 306 307 308 310 312 311 317 317 316 316 319 322 319 320 320 328 321 310 317 316 315 314 312 309 307
303 301 298 298 299 301 301 300 299 300 300 300 300 300 300 300 301 300 304 305 305 305 308 309 312 313 320 319 317 319 318 320 322 322 320 320 314 311 319 316 314 312 310 308 308
300 299 294 301 301 301 299 300 300 301 300 300 300 300 302 301 302 302 303 303 303 304 305 309 312 313 313 312 315 319 319 321 322 322 322 321 315 311 315 315 313 312 310 310 310
300 298 293 296 296 299 300 300 300 301 301 301 302 302 303 302 302 303 304 302 304 304 307 308 311 314 313 313 315 317 318 319 320 320 319 316 314 309 310 314 312 312 311 311 311
298 296 300 299 296 298 300 300 299 299 299 300 301 301 301 300 300 300 300 300 300 301 304 309 311 314 316 312 314 313 314 319 319 318 319 319 310 309 309 313 313 311 311 312 313
Wind_Speed
14 14 13 12 13 12 12 12 12 12 12 14 14 14 16 17 19 18 16 12 8 12 10 11 9 9 4 4 9 10 4 10 16 12 5 6 3 2 3 6 4 4 6 17 30
16 15 15 14 13 13 12 12 13 12 12 13 14 15 16 17 19 25 22 21 18 14 11 11 9 11 4 8 5 9 9 13 13 8 4 5 5 8 4 8 5 8 18 28 27
17 17 16 16 15 14 13 12 13 12 12 12 13 14 15 15 17 19 24 24 26 21 18 11 8 11 11 9 10 9 12 14 4 8 11 5 3 2 5 7 9 14 15 18 21
19 18 18 16 16 15 13 13 12 12 12 13 13 14 14 11 7 4 7 6 17 21 16 7 8 4 11 11 14 5 20 13 7 7 10 2 3 3 5 4 3 19 19 17 16
19 18 19 17 16 14 13 13 14 12 12 12 13 13 10 8 17 26 17 15 10 17 16 11 9 8 10 10 22 20 9 12 9 7 8 6 5 1 1 9 8 18 17 17 14
18 15 17 17 15 13 13 13 14 11 12 11 12 13 11 18 22 26 26 12 13 15 13 13 6 7 6 8 21 18 19 6 12 7 5 3 3 3 5 8 15 14 11 12 14
17 14 16 15 13 12 12 13 11 10 11 11 11 11 13 18 20 21 12 13 17 15 15 17 13 3 4 8 7 9 20 12 19 8 5 6 6 6 6 9 11 11 9 9 11
15 14 12 11 11 10 10 10 10 11 12 12 11 10 9 17 12 18 23 24 18 18 19 20 11 1 1 9 4 11 10 18 16 11 5 3 5 10 7 10 10 11 9 7 9
11 10 9 8 8 7 8 7 10 12 13 13 10 8 9 9 11 13 17 16 12 13 14 10 8 1 6 10 3 7 5 16 14 14 7 8 6 9 12 9 8 10 10 10 13
6 7 5 6 5 5 5 8 10 12 10 10 12 7 6 8 15 17 15 12 8 5 4 6 3 4 4 12 5 8 6 18 14 15 17 10 8 6 3 10 6 11 10 10 11
5 4 4 3 3 4 1 7 5 5 7 6 8 11 12 18 17 8 11 8 4 2 4 6 5 8 14 14 7 5 14 9 14 8 17 17 12 8 9 7 9 14 13 12 13
5 5 5 5 6 4 1 4 5 3 8 9 6 10 13 8 7 7 3 5 6 7 5 5 11 13 9 15 9 11 11 19 9 7 2 12 12 10 9 11 9 9 13 14 13
8 7 7 8 6 3 3 6 5 6 4 2 1 4 5 6 7 7 8 5 6 7 7 6 0 8 12 14 1 6 4 6 4 7 3 6 13 17 7 7 9 6 3 10 14
10 8 8 8 1 1 2 6 5 5 3 2 1 2 3 5 4 3 5 5 4 5 3 3 7 5 13 13 8 2 1 3 3 14 10 7 6 14 14 8 9 12 7 8 9
12 11 9 4 2 2 5 7 7 2 3 4 3 3 4 4 7 2 3 4 6 4 3 3 7 1 6 6 12 4 8 5 3 2 3 4 3 11 15 14 13 11 15 12 13
12 9 4 4 5 3 6 7 4 2 4 4 4 6 11 3 3 4 2 4 2 3 4 2 2 3 4 2 12 10 6 5 4 1 3 6 2 5 12 16 13 13 14 15 17
8 3 3 3 2 7 8 4 2 2 2 7 4 9 10 7 7 4 3 3 2 1 1 1 5 2 2 1 2 5 3 2 2 2 0 1 7 6 4 8 3 16 13 11 14
7 5 9 8 6 8 5 2 2 1 2 5 7 9 4 8 5 5 4 4 6 6 2 4 1 6 4 3 3 9 8 2 1 3 3 3 4 3 5 5 6 5 17 14 14
6 4 3 9 7 6 2 1 2 3 4 7 9 3 2 6 3 5 3 5 3 6 3 2 2 2 3 4 5 4 4 2 5 1 3 3 4 5 7 5 5 11 15 13 13
4 2 2 8 6 3 3 2 2 3 4 4 4 5 4 8 5 6 4 5 2 4 7 2 1 4 2 3 1 1 6 4 3 4 3 3 3 2 7 9 8 9 12 12 12
3 2 5 5 5 4 1 3 3 2 3 0 2 3 3 3 4 4 5 4 4 7 7 5 1 1 2 2 2 3 3 2 0 1 1 4 2 3 6 12 12 9 11 13 13
3 2 6 3 1 1 0 0 2 2 3 4 2 2 2 3 3 3 4 8 7 8 5 2 3 1 2 2 3 1 3 4 2 3 0 3 1 4 6 11 13 10 14 13 13
2 1 5 4 1 0 1 2 2 2 3 2 2 4 2 2 2 4 5 7 11 7 4 7 2 2 2 2 1 2 2 2 2 3 1 3 3 4 5 8 12 13 12 12 13
1 1 3 3 1 1 1 1 2 3 3 4 7 7 2 3 5 4 4 6 12 13 18 3 3 1 3 2 2 2 4 3 3 1 4 4 2 2 5 7 11 11 11 12 12
2 1 1 1 1 4 1 3 4 3 2 2 3 4 3 3 1 4 4 8 8 6 5 2 1 2 1 2 3 3 7 10 4 3 3 3 3 5 5 8 9 11 12 12 12
2 1 0 1 3 3 3 3 4 1 3 3 5 2 4 4 2 6 5 3 4 10 3 4 3 3 1 3 3 4 6 9 9 1 2 1 3 4 5 9 10 13 14 15 13
1 1 2 2 1 1 2 2 1 3 5 7 4 5 5 5 1 2 5 8 5 6 5 3 1 2 2 2 4 3 6 8 3 2 3 3 1 4 2 4 10 12 14 14 13
Wind_Direction
292 289 289 292 291 290 296 304 311 312 308 314 315 310 305 306 306 296 257 252 247 258 253 238 221 218 233 247 261 292 247 234 251 249 205 197 233 248 37 118 90 48 32 129 164
289 288 285 284 283 284 286 292 301 307 306 313 318 316 311 308 305 280 267 262 260 247 230 205 196 184 215 218 212 237 210 240 242 344 110 192 269 143 152 130 103 92 88 129 158
285 284 282 278 278 278 279 281 287 298 301 306 314 317 314 313 299 275 265 253 250 248 239 207 218 188 210 192 191 233 218 229 263 56 317 164 196 338 204 169 167 152 137 151 161
281 275 275 275 274 276 279 277 282 290 298 301 310 316 314 306 258 103 62 12 242 227 225 251 204 219 208 213 196 244 219 239 261 107 289 230 57 198 247 69 48 150 146 159 164
286 280 271 272 271 271 275 278 276 284 290 294 306 317 326 255 248 269 325 305 316 219 214 212 258 226 232 199 200 212 230 215 255 149 243 327 248 286 285 120 77 123 146 162 163
285 280 271 269 268 271 272 273 271 274 286 290 302 312 284 266 267 267 267 306 290 227 227 225 222 268 272 232 196 199 217 263 232 214 221 264 271 102 202 111 116 128 154 167 165
274 271 268 261 265 268 267 266 265 278 282 285 296 298 274 260 281 284 280 290 289 279 231 222 225 232 337 267 243 198 194 231 232 189 232 219 247 202 144 144 129 142 157 179 165
267 266 266 255 261 265 258 260 266 279 279 284 289 287 265 273 277 277 274 274 268 265 243 223 208 207 239 289 189 163 184 215 208 187 208 226 243 187 162 140 148 145 144 182 164
259 253 252 240 255 258 251 256 276 281 280 282 279 235 271 288 272 292 250 260 280 274 244 193 163 80 301 246 187 187 181 199 181 198 213 192 245 141 157 143 156 134 143 177 177
229 234 228 228 231 228 240 267 278 282 287 259 255 282 271 312 327 301 276 259 250 299 204 170 163 190 227 244 199 204 198 194 188 189 206 202 243 139 178 130 189 146 156 178 180
162 176 178 181 183 187 231 306 255 212 227 248 317 281 308 324 314 284 264 220 220 211 266 168 168 203 229 243 228 243 198 206 177 193 192 190 223 180 166 172 203 165 159 179 188
117 125 133 137 141 158 10 296 54 325 300 284 273 279 281 318 294 294 276 218 190 225 205 191 215 206 208 289 232 259 203 206 203 126 358 198 204 235 164 182 184 158 158 172 177
103 115 132 133 124 71 346 38 345 334 267 174 280 296 314 320 294 300 331 243 224 233 232 243 312 143 181 233 345 350 350 162 185 186 283 309 217 203 207 182 158 137 229 165 173
107 116 123 125 93 351 59 336 338 339 287 341 217 124 286 298 267 304 287 293 172 241 218 265 327 185 206 224 164 275 173 359 347 163 201 223 212 207 197 189 160 173 188 181 158
110 121 127 59 8 37 315 331 327 276 301 5 351 306 249 297 310 71 313 265 289 174 202 91 18 307 196 241 169 144 155 191 19 184 119 204 218 208 184 206 178 173 175 174 151
108 120 98 20 42 359 326 323 310 260 257 345 325 348 359 308 333 307 302 275 353 43 64 52 85 298 310 270 180 136 138 94 79 104 185 187 222 256 185 195 176 180 179 174 150
90 51 26 8 6 340 339 293 318 228 279 330 336 327 334 12 324 347 334 219 245 78 275 117 210 220 277 242 155 124 115 107 150 160 142 280 187 263 14 356 174 174 165 142 131
53 46 57 53 7 353 333 13 284 238 4 319 317 336 360 20 348 2 294 279 228 307 272 162 257 179 183 269 165 184 169 113 6 156 110 358 200 256 86 44 3 56 113 116 117
27 15 44 360 4 10 19 280 347 9 332 345 322 334 60 23 350 325 278 316 351 197 293 64 225 110 17 24 338 160 186 312 101 280 107 202 253 282 145 104 73 94 105 109 114
350 301 49 353 355 337 62 311 349 342 358 2 333 41 338 354 346 356 312 26 300 298 282 48 290 13 105 10 14 235 132 84 333 146 184 177 262 228 158 156 147 129 124 114 105
330 45 357 348 1 54 13 355 297 280 297 79 334 305 304 326 334 336 302 325 23 333 288 138 194 31 153 103 317 90 133 122 25 353 164 146 216 330 193 169 155 148 135 124 123
6 31 324 349 43 64 246 184 289 269 245 279 228 246 252 316 306 284 308 326 1 355 304 318 14 53 72 187 307 287 333 160 175 218 111 126 33 349 316 139 141 143 134 134 135
100 293 2 344 47 51 296 272 263 251 278 255 271 228 1 300 283 240 309 345 343 348 344 347 243 338 118 115 53 224 231 285 42 34 133 75 298 351 58 99 130 133 138 135 137
84 332 330 37 220 298 296 193 288 211 279 287 282 303 131 276 232 289 300 307 344 329 330 40 308 45 30 55 339 185 200 300 159 112 159 212 186 170 123 127 128 130 131 135 144
19 287 297 318 14 276 6 322 287 282 232 302 280 227 257 279 275 249 285 295 286 262 266 297 266 284 130 49 20 299 199 192 246 204 112 15 84 162 177 148 137 134 136 146 155
126 174 285 308 294 297 222 259 254 253 218 199 227 291 228 242 315 298 320 281 342 335 202 199 292 156 78 307 41 323 311 192 201 219 95 308 103 21 138 127 144 164 164 169 173
112 94 278 146 253 267 239 236 287 19 269 241 262 312 274 261 214 295 315 299 287 315 321 293 168 274 136 313 14 295 231 202 157 241 119 148 80 115 68 164 169 175 177 173 175